Location: Pian di Sc�
(43.6333°N, 11.5500°E)
Time: 14:22:47
(UTC+00:00)

NPP - Pass Details

Date: 07 August 2020
Orbit: 826 x 827 km, 98.7° (Epoch: 25 September)

Event Time Altitude Azimuth Distance (km) Brightness Sun altitude
Rises 00:29:14 0° 20° (NNE) 3,376 8.1 -27.9°
Reaches altitude 10° 00:31:42 10° 27° (NNE) 2,438 7.1 -27.8°
Maximum altitude 00:36:51 44° 99° (E) 1,132 4.3 -27.5°
Enters shadow 00:37:20 43° 113° (ESE) 1,149 4.3 -27.4°
